If you wish to contribute or participate in the discussions about articles you are invited to join SKYbrary as a registered user

 Actions

Neuquén/Presidente Perón International Airport

From SKYbrary Wiki

SAZN
Airport
ICAO: SAZN – IATA: NQN
Summary
Name Neuquén/Presidente Perón International Airport
Region South America and Caribbean
Territory Argentina AR.gif
Location Neuquén, Neuquén
Serving Neuquén
Elevation 292.913 m <br />961 ft <br />961 ft292.913 m <br />
Coordinates 38° 57' 7.06" S, 68° 8' 25.15" W
Runways
Designator Length Width Surface ROPS
9/27 2570 m8,431.759 ft <br /> 45 m147.638 ft <br /> ASP yes/yes


METAR
Observation SAZN 151300Z 00000KT CAVOK M04/M06 Q1034
Station Neuquen Aerodrome
Date/Time 15 June 2021 13:00:00
Wind direction
Wind speed 00 kts
Lowest cloud amount clouds and visibility OK
Temperature
Dew point
Humidity 85%
QNH 1034 hPa
Weather condition n/a

Presidente Perón International Airport is an airport in Neuquén Province, Argentina serving the cities of Neuquén, Cipolletti, Plottier, Centenario, and General Roca.

Maps

Terrain

Loading map...

Airport Layout

Loading map...


Accidents & Serious Incidents at or in vicinity of SAZN

None on SKYbrary